User: anonymous   Login
Location: Mentone
(34.5413°N, 85.5351°W)
Time: 06:57:13
(UTC-05:00)
Language:

S-56A Canister/Altair - Orbit

View from above orbital plane
View from above orbital plane
View from above satellite
View from above satellite

Ground track
Ground track

The orbit data is extracted from the following two-line orbital elements,

1 00082U 61004B   16236.27197785  .00000065  00000-0  84976-4 0  9994
2 00082  38.8570 319.4050 1166801 196.4084 159.5544 12.25772632636702
Epoch (UTC): 23 August 2016 06:31:38
Eccentricity: 0.1166801
inclination: 38.8570°
perigee height: 640 km
apogee height: 2494 km
right ascension of ascending node: 319.4050°
argument of perigee: 196.4084°
revolutions per day: 12.25772632
mean anomaly at epoch: 159.5544°
orbit number at epoch: 63670

The dashed part of the orbit path shows where the satellite is in the earth's shadow,  

DLR